[[{"header":{"parameterUnit":"m.s-1","parameterCategory":2,"la1":30.2991,"la2":30.254,"lo1":-89.0895,"lo2":-89.0444,"dy":0.0017,"dx":0.0017,"nx":28,"ny":28,"refTime":"2025-12-14T09:00:00:Z","depth":"0","parameterNumber":2,"parameterNumberName":"U-component_of_CURRENTS"},"data":[0,0,0,0,0,0,0,0,0,0,0,0,0,0,0,0,0,0,0,0,0,0,0,0,0,0,0,0,0,0,0,0,0,0,0,0,0,0,0,0,0,0,0,0,0,0,0,0,0,0,0,0,0,0,0,0,0,0,0.2354,0.2354,0,0.2344,0.2344,0.2344,0.2358,0.2358,0.2358,0.2358,0.2355,0.2355,0.2355,0,0,0,0,0,0,0,0,0,0,0,0,0,0.2358,0.2358,0.2354,0.2354,0.2353,0.2344,0.2344,0.2344,0.2358,0.2358,0.2358,0.2358,0.2355,0.2355,0.2355,0,0,0,0,0,0,0,0,0,0,0,0,0,0.2357,0.2358,0.2355,0.2355,0.2355,0.2344,0.2344,0.2344,0.2358,0.2358,0.2358,0.2358,0.2355,0.2355,0.2355,0.2353,0,0,0.2354,0.2354,0,0,0,0,0,0,0,0,0.2357,0.2358,0.2356,0.2355,0.2354,0.2348,0.2344,0.2346,0.2357,0.2362,0.2358,0.2358,0.235,0.235,0.2355,0.2352,0.2352,0.2354,0.2354,0.2354,0.2354,0,0,0,0,0,0,0,0.2357,0.2358,0.2355,0.2355,0.2354,0.2346,0.2347,0.2345,0.236,0.2361,0.2361,0.2352,0.2351,0.2355,0.2355,0.2352,0.2354,0.2354,0.2354,0.2354,0.2326,0.2326,0,0,0,0,0,0,0.235,0.2358,0.2355,0.2354,0.2351,0.2345,0.2347,0.2354,0.2359,0.2359,0.2352,0.2353,0.2355,0.2355,0.2355,0.2339,0.2354,0.2354,0.2354,0.2327,0.2326,0.2325,0,0,0,0,0,0,0.2351,0.2351,0.2356,0.2351,0.235,0.2345,0.2353,0.2353,0.235,0.2351,0.2352,0.2347,0.2356,0.2355,0.234,0.234,0.2354,0.2354,0.2328,0.2327,0.2326,0.2316,0,0,0,0,0,0,0.2351,0.2352,0.2345,0.2351,0.235,0.2339,0.2353,0.2353,0.2343,0.2343,0.2347,0.2348,0.2356,0.234,0.2339,0.234,0.2354,0.2328,0.2327,0.2326,0.2317,0.2315,0.2313,0,0,0,0,0,0.2352,0.2337,0.2346,0.2344,0.2346,0.2338,0.2337,0.2336,0.2342,0.2335,0.2335,0.2347,0.2332,0.2339,0.2339,0.2339,0.2329,0.2327,0.2326,0.2318,0.2315,0.2313,0,0,0,0,0,0,0.2323,0.2337,0.2346,0.2334,0.2333,0.2338,0.2321,0.233,0.2326,0.2328,0.2335,0.2335,0.2322,0.2326,0.2333,0.2326,0.2334,0.2332,0.2328,0.2325,0.2323,0.2313,0.2354,0,0,0,0,0,0.2317,0.2319,0.2326,0.2314,0.2312,0.2319,0.2312,0.232,0.2319,0.2318,0.2316,0.2317,0.2317,0.2317,0.2313,0.2308,0.2316,0.2308,0.2305,0.2304,0.2294,0.2311,0.231,0.2321,0.2321,0.2321,0,0,0.2295,0.2307,0.2303,0.2309,0.2308,0.2302,0.2316,0.2307,0.23,0.2317,0.2296,0.2304,0.2311,0.2305,0.2301,0.2309,0.2304,0.2302,0.2301,0.2291,0.231,0.2309,0.2308,0.232,0.232,0.232,0,0,0.2265,0.2272,0.2268,0.2271,0.2274,0.2279,0.2274,0.2278,0.2275,0.2263,0.2275,0.2281,0.227,0.2285,0.229,0.2272,0.2288,0.227,0.2257,0.2274,0.2274,0.2274,0.2282,0.2283,0.2275,0.2275,0.2274,0,0.2237,0.2245,0.2259,0.226,0.2254,0.2267,0.2258,0.2255,0.2251,0.2243,0.225,0.2252,0.2264,0.2269,0.2266,0.227,0.2274,0.227,0.2273,0.2273,0.2273,0.2282,0.2283,0.2274,0.2274,0.2274,0.2274,0,0.2216,0.2217,0.2209,0.2223,0.2218,0.2209,0.2213,0.2204,0.2204,0.2204,0.2197,0.2219,0.2225,0.2235,0.2246,0.2252,0.2252,0.2266,0.2283,0.2271,0.2281,0.2282,0.2273,0.2273,0.2273,0.2274,0,0,0.2169,0.219,0.2188,0.2188,0.2201,0.2192,0.218,0.2169,0.216,0.216,0.2154,0.2167,0.2185,0.2192,0.2217,0.2236,0.2249,0.2247,0.2248,0.2261,0.2276,0.2335,0.2341,0.2263,0.2263,0.2263,0.2283,0,0.2145,0.2143,0.2162,0.2142,0.2135,0.2149,0.2137,0.2133,0.2131,0.2125,0.2149,0.2151,0.2166,0.2185,0.2202,0.2238,0.225,0.2242,0.2279,0.228,0.2339,0.2345,0.2327,0.2348,0.2284,0.2284,0.2284,0,0.2122,0.2126,0.2109,0.2112,0.2109,0.21,0.209,0.2086,0.2088,0.2092,0.2103,0.2118,0.2143,0.2167,0.2207,0.2198,0.2227,0.2255,0.2257,0.2314,0.2342,0.2349,0.2353,0.2229,0.2286,0.2286,0.2286,0,0.2087,0.2086,0.207,0.207,0.2075,0.2065,0.2068,0.207,0.2064,0.2076,0.2083,0.2102,0.2128,0.2159,0.2216,0.2208,0.2268,0.2269,0.2344,0.2348,0.2341,0.2346,0.2236,0.2292,0.2292,0.2292,0.2292,0,0.206,0.205,0.2049,0.2039,0.2014,0.2037,0.2016,0.2025,0.2043,0.2038,0.2067,0.2081,0.2127,0.2167,0.2209,0.2288,0.2264,0.2339,0.2361,0.2338,0.2342,0.2243,0.2192,0.2293,0.2293,0.2293,0.2292,0,0.2039,0.2036,0.2016,0.2007,0.1996,0.1984,0.1984,0.1974,0.2005,0.2009,0.2016,0.2059,0.2124,0.2181,0.2249,0.2291,0.23,0.239,0.2361,0.2379,0.2341,0.2292,0.219,0.2136,0.2464,0.2466,0.2467,0,0.2023,0.2009,0.1985,0.1958,0.1952,0.1934,0.1919,0.1945,0.1942,0.1997,0.1996,0.2066,0.2115,0.2247,0.235,0.2446,0.2339,0.2471,0.2462,0.2335,0.2295,0.2198,0.2151,0.2439,0.244,0.244,0.2441,0,0.1984,0.1982,0.197,0.1925,0.1891,0.1867,0.1855,0.1847,0.1886,0.1906,0.1953,0.2007,0.2168,0.2266,0.2418,0.2484,0.2355,0.2494,0.2359,0.2266,0.2154,0.2114,0.2417,0.2449,0.2448,0.2447,0.2447,0.2447,0.1957,0.1936,0.1913,0.1886,0.184,0.1805,0.1777,0.1781,0.1785,0.1809,0.1892,0.1954,0.2135,0.2364,0.2431,0.2477,0.2428,0.2412,0.2364,0.2275,0.2216,0.2546,0.2613,0.2613,0.2613,0.2613,0.2613,0,0.1925,0.1906,0.1864,0.1814,0.1763,0.1761,0.1728,0.1701,0.1691,0.1742,0.179,0.1915,0.2064,0.2208,0.2358,0.2321,0.2253,0.2236,0.2048,0.201,0.2299,0.2291,0.2296,0.2296,0.2296,0.2296,0.2296,0.2296,0.1901,0.1871,0.1862,0.1761,0.1712,0.1626,0.1603,0.1579,0.1592,0.1595,0.1623,0.1691,0.1866,0.2032,0.206,0.2063,0.1878,0.1859,0.1781,0.1932,0.1941,0.1951,0.1926,0.1854,0.1854,0.1447,0.1444,0.1441]},{"header":{"parameterUnit":"m.s-1","parameterCategory":2,"la1":30.2991,"la2":30.254,"lo1":-89.0895,"lo2":-89.0444,"dy":0.0017,"dx":0.0017,"nx":28,"ny":28,"refTime":"2025-12-14T09:00:00:Z","depth":"0","parameterNumber":3,"parameterNumberName":"V-component_of_CURRENTS"},"data":[0,0,0,0,0,0,0,0,0,0,0,0,0,0,0,0,0,0,0,0,0,0,0,0,0,0,0,0,0,0,0,0,0,0,0,0,0,0,0,0,0,0,0,0,0,0,0,0,0,0,0,0,0,0,0,0,0,0,-0.1871,-0.187,0,-0.1969,-0.1971,-0.1974,-0.2053,-0.2052,-0.2051,-0.2051,-0.2198,-0.2203,-0.2207,0,0,0,0,0,0,0,0,0,0,0,0,0,-0.177,-0.1773,-0.1871,-0.187,-0.187,-0.1969,-0.1972,-0.1975,-0.2053,-0.2052,-0.2051,-0.205,-0.2197,-0.2202,-0.2208,0,0,0,0,0,0,0,0,0,0,0,0,0,-0.1852,-0.1774,-0.1871,-0.1908,-0.1912,-0.1968,-0.1972,-0.1975,-0.2053,-0.2052,-0.2051,-0.205,-0.2195,-0.2202,-0.2209,-0.2275,0,0,-0.223,-0.2233,0,0,0,0,0,0,0,0,-0.1847,-0.1858,-0.1903,-0.1906,-0.1909,-0.1982,-0.1989,-0.2072,-0.2054,-0.2018,-0.2051,-0.2049,-0.212,-0.2133,-0.2178,-0.2282,-0.2288,-0.2231,-0.2235,-0.2238,-0.224,0,0,0,0,0,0,0,-0.1841,-0.1854,-0.1927,-0.1903,-0.1906,-0.1925,-0.1938,-0.2007,-0.2089,-0.2021,-0.2022,-0.2006,-0.2125,-0.2171,-0.2182,-0.229,-0.223,-0.2237,-0.2241,-0.2244,-0.2353,-0.2351,0,0,0,0,0,0,-0.1796,-0.1849,-0.1924,-0.1928,-0.1855,-0.1927,-0.1941,-0.1974,-0.2087,-0.2097,-0.2007,-0.2009,-0.216,-0.2174,-0.2187,-0.2217,-0.2238,-0.2244,-0.2248,-0.2354,-0.2352,-0.2351,0,0,0,0,0,0,-0.1794,-0.1804,-0.1919,-0.1874,-0.1887,-0.1928,-0.1965,-0.1976,-0.2001,-0.2073,-0.2088,-0.2014,-0.216,-0.2178,-0.2203,-0.2225,-0.2247,-0.2254,-0.2355,-0.2353,-0.2352,-0.2312,0,0,0,0,0,0,-0.1792,-0.1804,-0.1793,-0.1872,-0.1888,-0.1935,-0.1965,-0.1978,-0.1985,-0.1989,-0.2084,-0.2098,-0.216,-0.2192,-0.221,-0.2235,-0.2259,-0.2357,-0.2355,-0.2352,-0.2315,-0.2309,-0.2304,0,0,0,0,0,-0.1789,-0.1784,-0.1794,-0.18,-0.1881,-0.1932,-0.1945,-0.1979,-0.1986,-0.2,-0.2036,-0.2094,-0.219,-0.2197,-0.2218,-0.2246,-0.2358,-0.2355,-0.2352,-0.2317,-0.231,-0.2304,0,0,0,0,0,0,-0.1737,-0.1792,-0.1805,-0.1818,-0.1856,-0.1938,-0.194,-0.1965,-0.2013,-0.2014,-0.2083,-0.21,-0.2132,-0.2178,-0.2183,-0.2262,-0.2283,-0.2284,-0.2249,-0.2243,-0.2237,-0.2218,-0.2265,0,0,0,0,0,-0.1715,-0.1733,-0.1786,-0.1795,-0.1812,-0.1874,-0.1888,-0.1923,-0.1971,-0.1993,-0.2049,-0.21,-0.2145,-0.2178,-0.2227,-0.2278,-0.2291,-0.2303,-0.2298,-0.2293,-0.2286,-0.2313,-0.231,-0.2341,-0.2341,-0.2342,0,0,-0.1692,-0.1723,-0.1729,-0.1782,-0.1826,-0.1861,-0.1887,-0.1918,-0.1933,-0.2001,-0.2037,-0.2083,-0.2146,-0.2195,-0.2215,-0.2236,-0.2283,-0.2289,-0.2285,-0.2281,-0.231,-0.2307,-0.2304,-0.234,-0.234,-0.234,0,0,-0.1674,-0.1695,-0.171,-0.1746,-0.1786,-0.1829,-0.1826,-0.1901,-0.1915,-0.195,-0.1993,-0.2035,-0.2115,-0.2171,-0.2205,-0.2195,-0.2243,-0.221,-0.2192,-0.2217,-0.2216,-0.2214,-0.2198,-0.2195,-0.2221,-0.2221,-0.2221,0,-0.1637,-0.1678,-0.1716,-0.175,-0.1762,-0.181,-0.1834,-0.1865,-0.1928,-0.193,-0.1945,-0.205,-0.2108,-0.2167,-0.2162,-0.219,-0.2187,-0.222,-0.2212,-0.2211,-0.2211,-0.2194,-0.2192,-0.2219,-0.2219,-0.2219,-0.222,0,-0.1651,-0.1673,-0.1688,-0.1748,-0.1768,-0.1798,-0.1835,-0.1853,-0.1868,-0.1897,-0.1933,-0.2013,-0.2074,-0.2105,-0.2137,-0.2169,-0.2159,-0.2194,-0.2234,-0.2206,-0.2189,-0.2188,-0.2216,-0.2216,-0.2217,-0.2218,0,0,-0.1609,-0.168,-0.1687,-0.169,-0.1769,-0.1778,-0.1805,-0.1829,-0.1813,-0.1882,-0.1885,-0.1977,-0.2013,-0.2051,-0.2111,-0.2145,-0.2138,-0.2161,-0.2164,-0.2152,-0.2153,-0.203,-0.2017,-0.2171,-0.2171,-0.2171,-0.2133,0,-0.1608,-0.1644,-0.169,-0.1703,-0.1718,-0.1764,-0.1772,-0.1792,-0.1808,-0.182,-0.1898,-0.1922,-0.1993,-0.2018,-0.2068,-0.2109,-0.2136,-0.2142,-0.2175,-0.2175,-0.2078,-0.2013,-0.185,-0.1792,-0.2132,-0.2132,-0.2131,0,-0.1606,-0.1627,-0.1643,-0.1654,-0.1663,-0.1671,-0.1667,-0.1677,-0.1712,-0.1732,-0.1795,-0.1841,-0.1907,-0.1966,-0.2044,-0.2038,-0.2087,-0.2127,-0.2128,-0.2028,-0.2051,-0.188,-0.1777,-0.183,-0.213,-0.213,-0.213,0,-0.1529,-0.1578,-0.157,-0.1587,-0.1624,-0.1611,-0.1616,-0.1639,-0.1617,-0.1662,-0.1664,-0.1759,-0.1785,-0.1876,-0.1953,-0.1993,-0.2013,-0.2087,-0.2028,-0.2019,-0.1893,-0.1872,-0.1852,-0.2142,-0.2142,-0.2143,-0.2143,0,-0.1497,-0.1483,-0.1521,-0.1515,-0.1462,-0.152,-0.1456,-0.1486,-0.1516,-0.1477,-0.1598,-0.1591,-0.1759,-0.1796,-0.1901,-0.1918,-0.1973,-0.1991,-0.1996,-0.1867,-0.1846,-0.1898,-0.1967,-0.2141,-0.2141,-0.2142,-0.2142,0,-0.1405,-0.1445,-0.142,-0.144,-0.1419,-0.1374,-0.1338,-0.13,-0.1354,-0.132,-0.1331,-0.1434,-0.1464,-0.1605,-0.1719,-0.1805,-0.1843,-0.1874,-0.1681,-0.1662,-0.1651,-0.1722,-0.1679,-0.1681,-0.1794,-0.179,-0.1787,0,-0.1345,-0.1337,-0.1329,-0.1283,-0.1278,-0.1213,-0.1163,-0.1203,-0.1181,-0.1201,-0.1189,-0.1213,-0.1188,-0.1292,-0.143,-0.154,-0.1683,-0.1501,-0.1564,-0.1587,-0.1673,-0.173,-0.1742,-0.1379,-0.1373,-0.1368,-0.1364,0,-0.1234,-0.1249,-0.1235,-0.1166,-0.1098,-0.1028,-0.0979,-0.0925,-0.0968,-0.0923,-0.0872,-0.0834,-0.0917,-0.0915,-0.1075,-0.1183,-0.1453,-0.1402,-0.1492,-0.1376,-0.1372,-0.1394,-0.1458,-0.132,-0.1325,-0.1328,-0.133,-0.1332,-0.1146,-0.1109,-0.1111,-0.1036,-0.096,-0.0878,-0.0769,-0.0717,-0.0621,-0.0504,-0.0552,-0.0388,-0.0491,-0.0651,-0.0819,-0.1007,-0.1136,-0.108,-0.1171,-0.1232,-0.1202,-0.1133,-0.0966,-0.0968,-0.097,-0.0972,-0.0974,0,-0.1043,-0.1032,-0.097,-0.0902,-0.0799,-0.0796,-0.0672,-0.0542,-0.0353,-0.0187,-0.0063,0.0075,-0.0025,-0.0268,-0.0555,-0.074,-0.0869,-0.0873,-0.0949,-0.0986,-0.0957,-0.0907,-0.0637,-0.0637,-0.0637,-0.0637,-0.0637,-0.0637,-0.0996,-0.0949,-0.0941,-0.0786,-0.0702,-0.053,-0.0425,-0.0225,-0.0058,0.03,0.0513,0.0598,0.0445,-0.0139,-0.0539,-0.0671,-0.087,-0.0835,-0.1022,-0.1039,-0.1067,-0.1095,-0.1063,-0.083,-0.0831,-0.0958,-0.096,-0.0961]}],[{"header":{"parameterUnit":"m.s-1","parameterCategory":2,"la1":30.2991,"la2":30.254,"lo1":-89.0895,"lo2":-89.0444,"dy":0.0017,"dx":0.0017,"nx":28,"ny":28,"refTime":"2025-12-14T09:00:00:Z","depth":"2","parameterNumber":2,"parameterNumberName":"U-component_of_CURRENTS"},"data":[0,0,0,0,0,0,0,0,0,0,0,0,0,0,0,0,0,0,0,0,0,0,0,0,0,0,0,0,0,0,0,0,0,0,0,0,0,0,0,0,0,0,0,0,0,0,0,0,0,0,0,0,0,0,0,0,0,0,0.1518,0.1518,0,0.1491,0.1491,0.149,0.147,0.147,0.147,0.147,0.1395,0.1394,0.1392,0,0,0,0,0,0,0,0,0,0,0,0,0,0.154,0.1539,0.1518,0.1518,0.1517,0.1491,0.1491,0.149,0.147,0.147,0.147,0.147,0.1396,0.1394,0.1391,0,0,0,0,0,0,0,0,0,0,0,0,0,0.1522,0.1539,0.1518,0.1506,0.1504,0.1492,0.1491,0.149,0.147,0.147,0.147,0.147,0.1397,0.1394,0.1391,0.1373,0,0,0.1382,0.1381,0,0,0,0,0,0,0,0,0.1523,0.1521,0.1508,0.1506,0.1505,0.1486,0.1472,0.1449,0.147,0.1481,0.147,0.147,0.1423,0.1417,0.141,0.137,0.1367,0.1382,0.138,0.1379,0.1378,0,0,0,0,0,0,0,0.1524,0.1522,0.1505,0.1507,0.1506,0.1498,0.1495,0.1467,0.145,0.148,0.1479,0.1479,0.1421,0.1413,0.1408,0.1366,0.1382,0.1379,0.1377,0.1376,0.1319,0.1319,0,0,0,0,0,0,0.1532,0.1523,0.1506,0.1505,0.1516,0.1498,0.1495,0.149,0.1451,0.1446,0.1479,0.1478,0.1418,0.1412,0.1406,0.1392,0.1379,0.1376,0.1374,0.1318,0.1319,0.1319,0,0,0,0,0,0,0.1532,0.153,0.1507,0.1515,0.1512,0.1498,0.1493,0.149,0.1485,0.1451,0.1445,0.1478,0.1418,0.141,0.1388,0.1389,0.1375,0.1372,0.1318,0.1318,0.1319,0.1358,0,0,0,0,0,0,0.1533,0.1531,0.1532,0.1515,0.1512,0.1498,0.1493,0.1489,0.1486,0.1485,0.1448,0.1441,0.1417,0.1393,0.1385,0.1384,0.137,0.1318,0.1318,0.1319,0.1357,0.136,0.1363,0,0,0,0,0,0.1534,0.1526,0.1532,0.153,0.1513,0.1498,0.1495,0.1484,0.1486,0.148,0.1464,0.1443,0.139,0.139,0.1381,0.138,0.1317,0.1318,0.1319,0.1355,0.1359,0.1363,0,0,0,0,0,0,0.1528,0.1523,0.1529,0.1519,0.1513,0.1495,0.149,0.1488,0.1471,0.1471,0.1443,0.1434,0.1418,0.1394,0.1395,0.1365,0.1351,0.135,0.1382,0.1385,0.1388,0.1398,0.1367,0,0,0,0,0,0.1532,0.153,0.1523,0.1517,0.1516,0.1507,0.1502,0.1497,0.1481,0.1474,0.1453,0.1431,0.1412,0.1396,0.1374,0.1353,0.1375,0.1347,0.135,0.1353,0.1355,0.1406,0.1415,0.1321,0.1321,0.1321,0,0,0.1526,0.1527,0.1524,0.1518,0.1513,0.1501,0.1503,0.1495,0.1485,0.1467,0.1448,0.1441,0.1411,0.1393,0.1383,0.1372,0.1393,0.1354,0.1356,0.1357,0.1408,0.1417,0.1425,0.1321,0.1321,0.1321,0,0,0.1512,0.1518,0.1511,0.1508,0.1507,0.15,0.1501,0.149,0.1485,0.1469,0.1462,0.1463,0.1418,0.1411,0.1398,0.1403,0.1412,0.1391,0.1406,0.1456,0.1465,0.1473,0.1526,0.1538,0.1387,0.1387,0.1387,0,0.1507,0.1499,0.1506,0.1498,0.1495,0.1501,0.1489,0.1481,0.1466,0.1478,0.1464,0.1455,0.1428,0.1428,0.1426,0.1411,0.1444,0.1396,0.1463,0.1471,0.1478,0.1531,0.1544,0.1389,0.1389,0.1389,0.1389,0,0.1486,0.1483,0.1477,0.1473,0.147,0.1462,0.1458,0.1463,0.1465,0.1472,0.1484,0.1465,0.1467,0.1456,0.1434,0.147,0.148,0.1469,0.1459,0.1491,0.1543,0.1556,0.1392,0.1391,0.1391,0.139,0,0,0.1464,0.1463,0.1463,0.1458,0.1459,0.1449,0.1451,0.1461,0.1478,0.1478,0.1505,0.1483,0.1507,0.1494,0.1484,0.1512,0.159,0.1509,0.1511,0.1571,0.1715,0.1713,0.1727,0.1599,0.1601,0.1602,0.1737,0,0.1445,0.1433,0.1436,0.1418,0.141,0.1426,0.1425,0.1443,0.1465,0.1494,0.1514,0.1525,0.151,0.1517,0.155,0.1579,0.1624,0.1555,0.1666,0.1669,0.1672,0.1741,0.1504,0.1603,0.1749,0.1751,0.1753,0,0.142,0.1421,0.1406,0.1403,0.1401,0.1386,0.1416,0.142,0.1477,0.1504,0.1552,0.1569,0.1614,0.159,0.1687,0.1649,0.1686,0.171,0.1716,0.1707,0.1691,0.159,0.1621,0.1775,0.1773,0.1771,0.177,0,0.1403,0.1393,0.1384,0.1382,0.1382,0.1379,0.1381,0.1428,0.1453,0.1521,0.1557,0.1623,0.1647,0.1718,0.1761,0.1738,0.1871,0.185,0.1891,0.1892,0.1706,0.1687,0.1932,0.1932,0.1931,0.1931,0.1931,0,0.1376,0.1365,0.1371,0.1362,0.136,0.1361,0.1392,0.1406,0.1459,0.1497,0.1559,0.1598,0.1678,0.1752,0.1802,0.1896,0.1917,0.1918,0.1934,0.1714,0.1695,0.1845,0.1833,0.1936,0.1935,0.1934,0.1933,0,0.1338,0.1352,0.133,0.1331,0.1349,0.1334,0.1387,0.1406,0.1458,0.1509,0.1528,0.1603,0.1716,0.1802,0.1917,0.194,0.2029,0.205,0.1793,0.1777,0.2012,0.2,0.214,0.2141,0.2142,0.2143,0.2144,0,0.1315,0.1305,0.131,0.1328,0.1322,0.1349,0.1376,0.1408,0.142,0.1507,0.15,0.1624,0.1707,0.1894,0.1926,0.2046,0.2092,0.1915,0.183,0.2035,0.2037,0.2024,0.2011,0.1602,0.1598,0.1595,0.1592,0,0.1263,0.126,0.1258,0.1304,0.1313,0.1319,0.1333,0.1358,0.1392,0.1447,0.1496,0.1576,0.1711,0.1718,0.1856,0.1891,0.1882,0.1861,0.2141,0.1593,0.1541,0.1538,0.1541,0.1565,0.1567,0.1569,0.1571,0.1572,0.1232,0.1207,0.1229,0.1257,0.128,0.1243,0.1257,0.128,0.1307,0.1335,0.1444,0.1488,0.1484,0.1585,0.1623,0.1661,0.1792,0.172,0.1724,0.1732,0.1653,0.1606,0.1628,0.1631,0.1634,0.1636,0.1638,0,0.1188,0.1168,0.1198,0.12,0.1206,0.122,0.1202,0.12,0.123,0.1242,0.132,0.1192,0.123,0.1287,0.1272,0.1349,0.1283,0.1347,0.1196,0.1223,0.1247,0.1139,0.098,0.0979,0.0978,0.0977,0,0,0.1155,0.1137,0.1134,0.1116,0.1147,0.1095,0.1074,0.1066,0.1051,0.103,0.1001,0.1101,0.1143,0.0971,0.1009,0.099,0.1098,0.097,0.148,0.1318,0.1341,0.1435,0.1297,0,0,0,0,0]},{"header":{"parameterUnit":"m.s-1","parameterCategory":2,"la1":30.2991,"la2":30.254,"lo1":-89.0895,"lo2":-89.0444,"dy":0.0017,"dx":0.0017,"nx":28,"ny":28,"refTime":"2025-12-14T09:00:00:Z","depth":"2","parameterNumber":3,"parameterNumberName":"V-component_of_CURRENTS"},"data":[0,0,0,0,0,0,0,0,0,0,0,0,0,0,0,0,0,0,0,0,0,0,0,0,0,0,0,0,0,0,0,0,0,0,0,0,0,0,0,0,0,0,0,0,0,0,0,0,0,0,0,0,0,0,0,0,0,0,0.0578,0.0577,0,0.0477,0.0476,0.0475,0.0382,0.0381,0.0379,0.0378,0.0215,0.0212,0.0208,0,0,0,0,0,0,0,0,0,0,0,0,0,0.0641,0.064,0.0579,0.0577,0.0576,0.0477,0.0476,0.0474,0.0382,0.0381,0.0379,0.0378,0.0216,0.0212,0.0208,0,0,0,0,0,0,0,0,0,0,0,0,0,0.0584,0.064,0.0579,0.0518,0.0512,0.0477,0.0476,0.0474,0.0382,0.038,0.0379,0.0377,0.0217,0.0212,0.0207,0.0209,0,0,0.0192,0.019,0,0,0,0,0,0,0,0,0.0587,0.0582,0.0528,0.0522,0.0515,0.0441,0.0438,0.0382,0.0383,0.0431,0.0378,0.0377,0.0286,0.0275,0.026,0.0202,0.0195,0.0192,0.0189,0.0186,0.0185,0,0,0,0,0,0,0,0.0591,0.0585,0.0538,0.0527,0.0519,0.0479,0.0469,0.0427,0.0368,0.0427,0.042,0.041,0.0282,0.0265,0.0255,0.0192,0.0192,0.0187,0.0184,0.0182,0.0065,0.0065,0,0,0,0,0,0,0.0609,0.0589,0.0541,0.0535,0.0548,0.0479,0.0468,0.0466,0.0369,0.0353,0.0411,0.0406,0.0275,0.0261,0.0249,0.0202,0.0186,0.0182,0.0179,0.0065,0.0065,0.0065,0,0,0,0,0,0,0.0611,0.0606,0.0545,0.0559,0.0549,0.048,0.0478,0.0465,0.0426,0.0358,0.0341,0.0383,0.0273,0.0256,0.0204,0.0197,0.018,0.0175,0.0065,0.0065,0.0065,0.0136,0,0,0,0,0,0,0.0614,0.0608,0.0604,0.0561,0.0549,0.0524,0.0479,0.0464,0.0424,0.0415,0.0329,0.0313,0.027,0.0212,0.0199,0.019,0.0171,0.0065,0.0065,0.0065,0.0134,0.0139,0.0142,0,0,0,0,0,0.0616,0.0622,0.0605,0.0598,0.0549,0.0524,0.0514,0.0459,0.0424,0.0415,0.0356,0.0314,0.0201,0.0208,0.0193,0.0182,0.0065,0.0065,0.0065,0.0132,0.0138,0.0142,0,0,0,0,0,0,0.0638,0.0612,0.0592,0.0586,0.0557,0.0508,0.049,0.0455,0.0402,0.0383,0.0317,0.0298,0.0251,0.0208,0.0217,0.0147,0.0124,0.0121,0.0181,0.0185,0.0189,0.0215,0.0167,0,0,0,0,0,0.0647,0.0646,0.0612,0.0604,0.0592,0.0539,0.0517,0.0482,0.0434,0.0408,0.0348,0.0286,0.0243,0.0207,0.0163,0.0125,0.0102,0.0106,0.011,0.0114,0.0124,0.0092,0.0095,0.0064,0.0064,0.0064,0,0,0.0651,0.0637,0.0633,0.0609,0.0578,0.0569,0.0521,0.0489,0.0475,0.0399,0.0352,0.03,0.0238,0.0199,0.0172,0.0157,0.0112,0.0114,0.0118,0.0126,0.0093,0.0096,0.0099,0.0064,0.0064,0.0064,0,0,0.0668,0.0649,0.0655,0.0639,0.0602,0.0577,0.0569,0.0515,0.0482,0.0439,0.0385,0.0336,0.0253,0.022,0.019,0.019,0.0141,0.0162,0.0195,0.0164,0.0167,0.0169,0.0154,0.0154,0.0157,0.0157,0.0157,0,0.0668,0.0679,0.0651,0.0653,0.0643,0.0585,0.0589,0.0555,0.0488,0.0475,0.0428,0.0329,0.0269,0.0241,0.0233,0.0201,0.0177,0.0184,0.0172,0.0174,0.0175,0.0158,0.0157,0.0161,0.016,0.016,0.016,0,0.0697,0.0697,0.0698,0.069,0.0677,0.0668,0.0631,0.0606,0.0554,0.0521,0.047,0.0391,0.0332,0.0302,0.026,0.0239,0.0219,0.0189,0.0166,0.0183,0.0163,0.0161,0.0166,0.0164,0.0163,0.0163,0,0,0.0712,0.0719,0.0715,0.0723,0.0697,0.0691,0.0681,0.0665,0.0665,0.058,0.0573,0.048,0.0428,0.0391,0.0329,0.0294,0.0273,0.0241,0.0237,0.0238,0.0212,0.0205,0.0202,0.0237,0.0236,0.0236,0.02,0,0.0737,0.0768,0.0758,0.0773,0.0789,0.0752,0.0757,0.0733,0.0698,0.0677,0.0593,0.0538,0.0464,0.0415,0.0379,0.0302,0.0269,0.0287,0.0185,0.0183,0.0184,0.02,0.0181,0.0147,0.0198,0.0197,0.0197,0,0.0769,0.079,0.0819,0.084,0.0841,0.0816,0.0826,0.0825,0.0797,0.0771,0.0714,0.064,0.0565,0.049,0.0381,0.0392,0.0308,0.0248,0.0244,0.0213,0.0172,0.0134,0.0141,0.0193,0.0194,0.0194,0.0194,0,0.0817,0.0832,0.086,0.0861,0.0872,0.0848,0.0832,0.0826,0.0822,0.0796,0.0773,0.0709,0.0617,0.0538,0.0388,0.0377,0.0281,0.025,0.0174,0.0173,0.0125,0.0121,0.0178,0.0178,0.0179,0.0179,0.0179,0,0.0863,0.0876,0.0859,0.087,0.0829,0.0867,0.082,0.0819,0.0839,0.0824,0.0786,0.0729,0.0612,0.0528,0.0432,0.0303,0.0307,0.0191,0.0164,0.015,0.0148,0.0158,0.0157,0.0177,0.0178,0.0178,0.0178,0,0.0895,0.09,0.0912,0.0902,0.0832,0.0807,0.071,0.077,0.077,0.075,0.0725,0.0705,0.0591,0.0509,0.037,0.0323,0.0228,0.0174,0.0177,0.015,0.0136,0.0138,0.0109,0.0108,0.0108,0.0107,0.0107,0,0.0904,0.0932,0.087,0.0806,0.0749,0.0666,0.0651,0.0673,0.0757,0.0702,0.0754,0.0619,0.0581,0.0444,0.0304,0.0198,0.0167,0.0117,0.0092,0.0153,0.0129,0.0132,0.0134,0.0057,0.0056,0.0056,0.0055,0,0.0924,0.0912,0.0889,0.0755,0.0682,0.0657,0.0638,0.0655,0.0739,0.0752,0.0759,0.0704,0.0535,0.0416,0.0276,0.0188,0.0151,0.0101,0.0152,0.0084,0.0103,0.008,0.0084,0.005,0.0051,0.0051,0.0051,0.0052,0.0876,0.0878,0.0839,0.0707,0.0639,0.0691,0.0656,0.0748,0.0807,0.0871,0.0797,0.0752,0.0596,0.0414,0.0239,0.0047,0.0074,0.0038,0.004,0.0043,0.005,0.0067,0.001,0.001,0.0011,0.0011,0.0011,0,0.0849,0.0882,0.0801,0.0697,0.0656,0.0622,0.0723,0.0793,0.087,0.0906,0.0916,0.0741,0.0613,0.0395,0.0102,-0.0013,-0.0032,-0.0067,-0.0067,-0.006,-0.0054,-0.0053,-0.012,-0.0121,-0.0122,-0.0122,0,0,0.0861,0.0856,0.0879,0.0756,0.0654,0.0706,0.0767,0.0879,0.0963,0.0969,0.093,0.0942,0.0673,0.0451,0.0233,0.0037,0.0026,0.0005,0.0128,0.0161,0.0168,0.0026,0.0039,0,0,0,0,0]}],[{"header":{"parameterUnit":"m.s-1","parameterCategory":2,"la1":30.2991,"la2":30.254,"lo1":-89.0895,"lo2":-89.0444,"dy":0.0017,"dx":0.0017,"nx":28,"ny":28,"refTime":"2025-12-14T09:00:00:Z","depth":"4","parameterNumber":2,"parameterNumberName":"U-component_of_CURRENTS"},"data":[0,0,0,0,0,0,0,0,0,0,0,0,0,0,0,0,0,0,0,0,0,0,0,0,0,0,0,0,0,0,0,0,0,0,0,0,0,0,0,0,0,0,0,0,0,0,0,0,0,0,0,0,0,0,0,0,0,0,-0.0161,-0.016,0,-0.0114,-0.0114,-0.0114,-0.011,-0.011,-0.011,-0.0111,-0.0081,-0.008,-0.0079,0,0,0,0,0,0,0,0,0,0,0,0,0,-0.0194,-0.0194,-0.0161,-0.016,-0.0159,-0.0114,-0.0114,-0.0114,-0.011,-0.011,-0.011,-0.0111,-0.0082,-0.008,-0.0079,0,0,0,0,0,0,0,0,0,0,0,0,0,-0.017,-0.0194,-0.0161,-0.0149,-0.0148,-0.0114,-0.0114,-0.0113,-0.011,-0.011,-0.011,-0.0111,-0.0082,-0.0081,-0.0079,-0.0064,0,0,-0.0075,-0.0074,0,0,0,0,0,0,0,0,-0.0171,-0.0169,-0.0152,-0.015,-0.0148,-0.0115,-0.0114,-0.0097,-0.011,-0.0128,-0.0111,-0.0111,-0.0092,-0.009,-0.0085,-0.0063,-0.0061,-0.0075,-0.0074,-0.0073,-0.0073,0,0,0,0,0,0,0,-0.0173,-0.0171,-0.0146,-0.0151,-0.0148,-0.0128,-0.0126,-0.0111,-0.0112,-0.0126,-0.0125,-0.0114,-0.0091,-0.0086,-0.0084,-0.0061,-0.0075,-0.0073,-0.0072,-0.0072,0.0079,0.0082,0,0,0,0,0,0,-0.0174,-0.0172,-0.0147,-0.0144,-0.0157,-0.0127,-0.0125,-0.0128,-0.0111,-0.0108,-0.0114,-0.0114,-0.0088,-0.0086,-0.0083,0.0036,-0.0073,-0.0072,-0.0071,0.0076,0.008,0.0084,0,0,0,0,0,0,-0.0176,-0.0173,-0.0149,-0.0154,-0.0149,-0.0126,-0.013,-0.0127,-0.011,-0.0101,-0.0099,-0.0099,-0.0088,-0.0085,-0.006,0.0033,-0.0071,-0.007,0.0073,0.0078,0.0082,0.0208,0,0,0,0,0,0,-0.0177,-0.0174,-0.0173,-0.0154,-0.0148,-0.0121,-0.0129,-0.0126,-0.0103,-0.0102,-0.0088,-0.0086,-0.0088,-0.0062,-0.0059,0.0033,-0.0069,0.0069,0.0075,0.008,0.02,0.0217,0.0231,0,0,0,0,0,-0.0179,-0.0172,-0.0174,-0.017,-0.0149,-0.0119,-0.0115,-0.0102,-0.0101,-0.0089,-0.0081,-0.0086,-0.002,-0.006,-0.0056,0.0038,0.0066,0.0073,0.008,0.0193,0.0214,0.0231,0,0,0,0,0,0,-0.018,-0.017,-0.0172,-0.0162,-0.0139,-0.0118,-0.0103,-0.0092,-0.0076,-0.0073,-0.0072,-0.0069,0.0001,-0.001,-0.0053,0.0101,0.0034,0.0042,0.0119,0.0138,0.0153,0.0174,-0.0067,0,0,0,0,0,-0.0181,-0.018,-0.0159,-0.0151,-0.014,-0.012,-0.0105,-0.0091,-0.0073,-0.0066,-0.0045,-0.0015,0.0034,0.0055,0.0085,0.0146,0.009,0.0218,0.0234,0.0247,0.0268,0.0232,0.0245,0.0107,0.0107,0.0107,0,0,-0.0178,-0.0172,-0.0171,-0.0151,-0.0137,-0.0102,-0.0113,-0.0082,-0.0037,-0.0065,0.0,0.0032,0.0059,0.0143,0.0176,0.0144,0.0254,0.0256,0.0267,0.0281,0.0241,0.0253,0.0265,0.0112,0.0111,0.011,0,0,-0.0165,-0.0168,-0.0159,-0.0136,-0.0105,-0.0084,-0.0071,-0.0032,-0.0003,0.0057,0.0072,0.0138,0.02,0.0249,0.0279,0.039,0.0334,0.043,0.0531,0.0496,0.0506,0.0514,0.0439,0.044,0.0442,0.0442,0.0442,0,-0.0161,-0.0145,-0.0147,-0.012,-0.0092,-0.0072,-0.0034,0.0005,0.0056,0.0102,0.0093,0.0236,0.0255,0.0374,0.0441,0.0428,0.0384,0.0456,0.0513,0.052,0.0526,0.0447,0.0446,0.0449,0.0448,0.0447,0.0447,0,-0.0134,-0.0113,-0.0101,-0.0065,-0.0035,0.0002,0.0054,0.0116,0.0162,0.0208,0.0332,0.0366,0.0462,0.0501,0.0517,0.062,0.0564,0.0528,0.0458,0.0547,0.0459,0.0455,0.0459,0.0456,0.0454,0.0453,0,0,-0.0138,-0.0094,-0.0086,-0.0053,0.0,0.0035,0.0125,0.0217,0.0296,0.0372,0.0469,0.0599,0.0641,0.068,0.0717,0.0715,0.0728,0.0674,0.0668,0.0586,0.0629,0.0615,0.0608,0.0704,0.0705,0.0706,0.0539,0,-0.0111,-0.006,-0.004,0.0038,0.0077,0.0135,0.0221,0.0312,0.0389,0.0489,0.0564,0.0667,0.0702,0.0773,0.0789,0.074,0.0731,0.0775,0.0568,0.0561,0.0527,0.061,0.0709,0.0536,0.0535,0.0535,0.0534,0,-0.0079,-0.0048,0.0017,0.0109,0.0133,0.0201,0.0346,0.0431,0.0569,0.063,0.0749,0.0787,0.0873,0.0855,0.0818,0.0848,0.078,0.0712,0.0703,0.0649,0.0544,0.0435,0.0527,0.0527,0.0528,0.0528,0.0529,0,-0.0068,0.0003,0.0057,0.0085,0.0189,0.0269,0.0358,0.0497,0.0571,0.0736,0.0774,0.0876,0.0893,0.0862,0.0756,0.0804,0.0619,0.0641,0.0552,0.0545,0.0542,0.0535,0.0599,0.0599,0.06,0.06,0.0601,0,-0.0038,0.0012,0.0081,0.012,0.0225,0.0308,0.0448,0.0558,0.0684,0.0734,0.0864,0.0858,0.0896,0.0795,0.0738,0.061,0.0593,0.059,0.0524,0.0597,0.0599,0.0537,0.0532,0.0594,0.0595,0.0597,0.0598,0,-0.0026,0.0011,0.0082,0.0191,0.0235,0.033,0.0479,0.0568,0.0696,0.0753,0.0798,0.0827,0.0742,0.0693,0.0565,0.055,0.0437,0.0377,0.0407,0.034,0.0403,0.0406,0.0348,0.0347,0.0346,0.0345,0.0344,0,-0.0019,0.0016,0.0115,0.0157,0.0216,0.0352,0.0435,0.0585,0.0637,0.0675,0.066,0.0629,0.0632,0.0423,0.0401,0.0308,0.0304,0.0252,0.0447,0.0447,0.0387,0.0393,0.0398,0.0342,0.0342,0.0341,0.0341,0,-0.002,0.0015,0.0061,0.0152,0.0236,0.0317,0.0429,0.0448,0.056,0.0636,0.0555,0.0538,0.0424,0.0382,0.0297,0.0221,0.0321,0.0242,0.0248,0.0432,0.0438,0.0382,0.0388,0.0337,0.0338,0.0338,0.0338,0,-0.003,-0.0008,0.0047,0.0138,0.0212,0.0254,0.0329,0.0366,0.0431,0.0481,0.0394,0.0358,0.0353,0.032,0.0197,0.0188,0.0264,0.0303,0.0308,0.0313,0.0393,0.0401,0.025,0,0,0,0,0,-0.004,-0.0023,0.0028,0.0114,0.0181,0.0223,0.0294,0.0354,0.0405,0.0353,0.0406,0.0311,0.0267,0.0223,0.0221,0.0208,0.025,0.0207,0.0294,0.0315,0.032,0.0426,0,0,0,0,0,0,-0.0052,-0.0018,0.0005,0.0063,0.0109,0.0176,0.0205,0.024,0.0235,0.0279,0.0246,0.0315,0.0257,0.0257,0.0212,0.0212,0.0272,0.0211,0.0211,0.0312,0.0317,0.032,0.0431,0,0,0,0,0]},{"header":{"parameterUnit":"m.s-1","parameterCategory":2,"la1":30.2991,"la2":30.254,"lo1":-89.0895,"lo2":-89.0444,"dy":0.0017,"dx":0.0017,"nx":28,"ny":28,"refTime":"2025-12-14T09:00:00:Z","depth":"4","parameterNumber":3,"parameterNumberName":"V-component_of_CURRENTS"},"data":[0,0,0,0,0,0,0,0,0,0,0,0,0,0,0,0,0,0,0,0,0,0,0,0,0,0,0,0,0,0,0,0,0,0,0,0,0,0,0,0,0,0,0,0,0,0,0,0,0,0,0,0,0,0,0,0,0,0,0.056,0.056,0,0.0579,0.0579,0.0579,0.0594,0.0595,0.0595,0.0596,0.0638,0.0638,0.0639,0,0,0,0,0,0,0,0,0,0,0,0,0,0.0551,0.0551,0.056,0.056,0.0561,0.0579,0.0579,0.0579,0.0594,0.0595,0.0595,0.0596,0.0638,0.0638,0.0639,0,0,0,0,0,0,0,0,0,0,0,0,0,0.0556,0.0551,0.0559,0.0575,0.0577,0.0579,0.0579,0.0579,0.0594,0.0595,0.0596,0.0597,0.0638,0.0638,0.0639,0.0624,0,0,0.0641,0.0642,0,0,0,0,0,0,0,0,0.0556,0.0555,0.0572,0.0574,0.0576,0.059,0.0592,0.0597,0.0593,0.0581,0.0596,0.0597,0.0627,0.0629,0.0622,0.0626,0.0628,0.0641,0.0642,0.0642,0.0642,0,0,0,0,0,0,0,0.0555,0.0555,0.0562,0.0573,0.0575,0.0587,0.0588,0.0593,0.0594,0.0582,0.0585,0.0596,0.0628,0.0621,0.0623,0.0628,0.0641,0.0642,0.0643,0.0643,0.065,0.065,0,0,0,0,0,0,0.0562,0.0554,0.0561,0.0563,0.0575,0.0587,0.0588,0.058,0.0594,0.0599,0.0595,0.0597,0.0619,0.0622,0.0625,0.0641,0.0642,0.0643,0.0643,0.065,0.065,0.065,0,0,0,0,0,0,0.0561,0.0561,0.056,0.0565,0.0566,0.0586,0.0578,0.058,0.0601,0.0604,0.0608,0.0617,0.062,0.0624,0.0638,0.0642,0.0643,0.0644,0.0651,0.065,0.065,0.0652,0,0,0,0,0,0,0.056,0.056,0.0576,0.0564,0.0567,0.0572,0.0577,0.058,0.0607,0.061,0.0624,0.0627,0.0621,0.0637,0.0639,0.0643,0.0645,0.0651,0.0651,0.065,0.0653,0.0652,0.0652,0,0,0,0,0,0.056,0.057,0.0576,0.0579,0.058,0.0573,0.0575,0.0589,0.0608,0.0612,0.062,0.0628,0.0635,0.0637,0.064,0.0644,0.0651,0.0651,0.065,0.0653,0.0652,0.0652,0,0,0,0,0,0,0.0573,0.0572,0.0579,0.0589,0.0589,0.0578,0.0595,0.0604,0.0613,0.0628,0.0628,0.063,0.0642,0.0642,0.0645,0.0643,0.0644,0.0644,0.0645,0.0644,0.0644,0.0648,0.0645,0,0,0,0,0,0.0584,0.0592,0.0587,0.0598,0.0599,0.0602,0.0612,0.0619,0.0621,0.0627,0.0638,0.0644,0.0635,0.0642,0.0639,0.0644,0.0611,0.0647,0.0646,0.0646,0.0649,0.0562,0.0553,0.0648,0.0648,0.0648,0,0,0.0596,0.0597,0.0605,0.0603,0.0605,0.0607,0.0609,0.0625,0.063,0.0631,0.0652,0.0648,0.0636,0.0633,0.0638,0.064,0.0607,0.0645,0.0645,0.0649,0.056,0.0551,0.0543,0.0648,0.0648,0.0648,0,0,0.0612,0.0618,0.0629,0.0626,0.0638,0.0634,0.0645,0.0648,0.0653,0.0667,0.066,0.0648,0.0668,0.0633,0.0622,0.0617,0.0606,0.0638,0.0641,0.0556,0.0547,0.0539,0.0507,0.0496,0.0638,0.0638,0.0638,0,0.0631,0.0634,0.0633,0.0634,0.0634,0.0648,0.0649,0.0653,0.0665,0.0657,0.0681,0.0658,0.0653,0.0609,0.0617,0.0613,0.0592,0.0645,0.0554,0.0545,0.0536,0.0505,0.0492,0.0638,0.0638,0.0638,0.0638,0,0.0641,0.0652,0.0655,0.0658,0.0655,0.0661,0.0656,0.0675,0.0694,0.0681,0.0665,0.0645,0.0636,0.0623,0.0629,0.0571,0.0586,0.056,0.0553,0.0526,0.0496,0.0483,0.0638,0.0638,0.0638,0.0638,0,0,0.0653,0.0662,0.0664,0.0671,0.0666,0.0665,0.0672,0.066,0.0666,0.0668,0.0645,0.0623,0.0628,0.0616,0.0606,0.0535,0.0466,0.0545,0.054,0.0511,0.0326,0.0344,0.0331,0.043,0.0427,0.0425,0.0337,0,0.0663,0.0671,0.0665,0.0678,0.0681,0.068,0.0689,0.0682,0.067,0.0658,0.0612,0.061,0.062,0.0637,0.0562,0.0481,0.043,0.0496,0.0359,0.0355,0.037,0.0315,0.0416,0.0327,0.0324,0.0321,0.032,0,0.067,0.0674,0.0685,0.0696,0.0696,0.0725,0.0722,0.0738,0.0705,0.0697,0.0663,0.0632,0.0564,0.0577,0.0421,0.0472,0.0424,0.0351,0.0345,0.035,0.0347,0.0353,0.0296,0.0297,0.0299,0.0301,0.0302,0,0.0679,0.0687,0.0699,0.0698,0.0715,0.0747,0.0788,0.077,0.077,0.0753,0.0727,0.0635,0.0606,0.0498,0.0393,0.0412,0.02,0.0194,0.0162,0.0164,0.0176,0.0185,0.0086,0.0087,0.0087,0.0087,0.0087,0,0.0681,0.0697,0.0731,0.0745,0.0792,0.0805,0.0862,0.0875,0.0865,0.0818,0.0793,0.0688,0.0584,0.0449,0.0368,0.0225,0.0185,0.0154,0.0126,0.0185,0.0196,0.0168,0.0179,0.0084,0.0084,0.0085,0.0086,0,0.0692,0.0706,0.0738,0.0781,0.0811,0.0871,0.0955,0.0962,0.0979,0.0909,0.0911,0.073,0.0559,0.0452,0.0246,0.0197,0.0057,0.0031,0.0132,0.0112,0.0092,0.0104,-0.0029,-0.003,-0.003,-0.003,-0.0031,0,0.069,0.0705,0.0781,0.0812,0.0855,0.0954,0.0999,0.1046,0.1008,0.0876,0.0787,0.0641,0.052,0.0258,0.014,0.0021,0.0015,-0.0014,0.002,0.0086,0.0072,0.0085,0.0097,-0.0031,-0.0031,-0.0032,-0.0032,0,0.0658,0.0706,0.0739,0.0841,0.0906,0.0941,0.0997,0.0967,0.094,0.0942,0.0696,0.0566,0.0366,0.0192,0.0151,0.0035,0.0014,-0.0019,-0.0018,0.0013,0.0082,0.0071,0.0084,-0.0033,-0.0033,-0.0033,-0.0033,0,0.0646,0.0664,0.0732,0.0831,0.0885,0.0862,0.0926,0.0863,0.085,0.0714,0.0593,0.0423,0.0327,0.019,0.008,0.0049,0.0034,0.0038,0.0036,0.0036,0.0093,0.0192,0.0071,0,0,0,0,0,0.0604,0.0622,0.0693,0.0779,0.0846,0.088,0.0844,0.0872,0.0827,0.0675,0.0661,0.0481,0.0308,0.017,0.0143,0.0061,0.0023,0.0024,0.0027,-0.0041,-0.0039,0.0018,0,0,0,0,0,0,0.0553,0.0613,0.0664,0.0715,0.0775,0.0814,0.078,0.0761,0.0675,0.0626,0.0525,0.0517,0.0341,0.0374,0.0165,0.014,0.014,-0.004,-0.0041,-0.0042,-0.004,-0.0039,0.002,0,0,0,0,0]}]]